Home > Weather > Falkensee > Past weeks

Flag for Germany Past Weather in Falkensee, Brandenburg, Germany — Yesterday and Last 2 Weeks

Now
70 °F

Clear.


Feels Like: 70 °F
Forecast: 64 / 89 °F
Wind: 9 mph from Southeast

Location: Berlin-Tegel

Current Time: Aug 26, 2016 at 1:57:30 AM

Latest Report: Aug 26, 2016 at 1:20 AM


Visibility: 10 mi

Pressure: 30.07 "Hg

Humidity: 57%

Dew Point: 54 °F

Location of FalkenseeLocation

Past Weather in Falkensee — Graph

°F

Falkensee Temperature Yesterday

Maximum temperature yesterday: 86 °F (at 3:50 PM)
Minimum temperature yesterday: 63 °F (at 3:50 AM)
Average temperature yesterday: 74 °F

High & Low Weather Summary for the Past Weeks

 TemperatureHumidityPressure
High86 °F (Aug 25, 3:50 PM)100% (Aug 17, 3:50 AM)30.33 "Hg (Aug 17, 3:50 AM)
Low45 °F (Aug 11, 5:20 AM)28% (Aug 19, 3:20 PM)29.80 "Hg (Aug 18, 4:20 PM)
Average65 °F67%30.09 "Hg
* Reported Aug 11 12:20 AM — Aug 26 12:20 AM, Falkensee, Weather by CustomWeather, © 2016

Note: Actual official high and low records may vary slightly from our data, if they occured in-between our weather recording intervals... More about our weather records

Advertising

Falkensee Weather History for the Previous 24 Hours

Scroll right to see more
 ConditionsComfort  
Time TempWeatherWind HumidityBarometerVisibility
12:20 AM
Fri, Aug 26
72 °FPassing clouds.7 mph53%30.09 "HgN/A
11:50 PM
Thu, Aug 25
72 °FPassing clouds.9 mph53%30.09 "HgN/A
11:20 PM72 °FPassing clouds.10 mph53%30.09 "HgN/A
10:50 PM72 °FClear.9 mph50%30.09 "Hg10 mi
10:20 PM73 °FPassing clouds.12 mph47%30.09 "HgN/A
9:50 PM75 °FClear.12 mph44%30.09 "Hg10 mi
9:20 PM77 °FClear.13 mph42%30.09 "Hg10 mi
8:50 PM77 °FSunny.13 mph42%30.09 "Hg10 mi
8:20 PM77 °FSunny.12 mph39%30.09 "Hg10 mi
7:50 PM81 °FSunny.14 mph34%30.09 "Hg10 mi
7:20 PM81 °FPassing clouds.12 mph34%30.09 "HgN/A
6:50 PM82 °FPassing clouds.12 mph32%30.09 "HgN/A
6:20 PM84 °FSunny.13 mph31%30.09 "Hg10 mi
5:50 PM84 °FPassing clouds.13 mph31%30.09 "HgN/A
5:20 PM86 °FPassing clouds.13 mph29%30.12 "HgN/A
4:50 PM86 °FPassing clouds.12 mph29%30.12 "HgN/A
4:20 PM86 °FPassing clouds.12 mph29%30.12 "HgN/A
3:50 PM86 °FPassing clouds.13 mph31%30.12 "HgN/A
3:20 PM84 °FPassing clouds.10 mph31%30.15 "HgN/A
2:50 PM84 °FPassing clouds.10 mph33%30.15 "HgN/A
2:20 PM84 °FPassing clouds.9 mph33%30.15 "HgN/A
1:50 PM82 °FPassing clouds.9 mph35%30.15 "HgN/A
1:20 PM82 °FSunny.8 mph37%30.18 "Hg10 mi
12:50 PM81 °FPassing clouds.9 mph42%30.18 "HgN/A
12:20 PM79 °FPassing clouds.10 mph45%30.18 "HgN/A
11:50 AM79 °FPassing clouds.12 mph48%30.18 "HgN/A
11:20 AM77 °FPassing clouds.9 mph51%30.18 "HgN/A
10:50 AM75 °FPassing clouds.10 mph50%30.18 "HgN/A
10:20 AM73 °FSunny.10 mph53%30.21 "Hg10 mi
9:50 AM72 °FPassing clouds.9 mph61%30.21 "HgN/A
9:20 AM70 °FPassing clouds.9 mph64%30.21 "HgN/A
8:50 AM70 °FSunny.8 mph64%30.21 "Hg10 mi
8:20 AM68 °FPassing clouds.7 mph64%30.21 "HgN/A
7:50 AM66 °FPassing clouds.9 mph68%30.21 "HgN/A
7:20 AM64 °FPassing clouds.7 mph73%30.21 "HgN/A
6:50 AM63 °FPassing clouds.7 mph77%30.21 "HgN/A
6:20 AM63 °FClear.6 mph73%30.21 "Hg10 mi
5:50 AM63 °FClear.6 mph73%30.21 "Hg10 mi
5:20 AM63 °FPassing clouds.8 mph77%30.21 "HgN/A
4:50 AM64 °FClear.10 mph73%30.21 "Hg10 mi
4:20 AM64 °FClear.8 mph73%30.21 "Hg10 mi
3:50 AM63 °FClear.6 mph73%30.24 "Hg10 mi
3:20 AM64 °FClear.7 mph73%30.24 "Hg10 mi
2:50 AM64 °FClear.8 mph73%30.24 "Hg10 mi
2:20 AM66 °FClear.8 mph68%30.24 "Hg10 mi
1:50 AM64 °FClear.6 mph73%30.24 "Hg10 mi
1:20 AM68 °FClear.9 mph69%30.24 "Hg10 mi
Weather by CustomWeather, © 2016

See weather overviewHow to use our weather pages